Dewpoint
66 65 66 66 66 66 66 67 67 67 67 65 65 65 67 67 66 67 68 69 68 67 67 68 68 67 68 68 68 68 69 69 69 71 73 73 73 73 73 73 72 71 71 70 70 70 71 70 70 72 71 72 72 72 73 72 73 73 73 72 71 72 71 71 69 68 68 71 72 71 73 72 70 72 71 70 72 72 71 69 71 70 71 74 73
66 66 66 65 66 65 66 67 67 67 67 68 66 64 64 66 67 67 64 67 68 66 66 66 66 67 66 67 68 68 69 69 68 68 68 69 70 70 70 71 71 72 71 69 70 70 70 70 70 70 71 70 70 72 71 72 73 73 72 71 71 71 73 71 69 69 68 69 72 71 71 74 72 73 71 69 75 73 69 69 68 69 67 69 73
61 66 66 65 64 64 66 66 65 65 66 67 67 66 63 65 67 67 66 66 65 65 65 66 68 69 68 68 69 67 68 68 68 68 68 69 69 67 67 70 72 71 70 71 68 70 70 70 70 69 69 69 70 72 72 72 72 72 72 72 71 70 70 71 70 69 69 69 70 69 69 73 69 72 71 72 73 74 73 69 69 67 67 67 70
64 65 65 61 61 61 60 63 66 65 65 65 66 66 66 66 66 66 67 67 66 66 67 68 68 68 68 67 66 67 67 68 68 68 67 68 67 67 66 68 69 68 68 68 70 70 70 69 68 69 70 70 70 71 72 72 72 71 71 72 72 72 71 71 73 71 70 68 70 69 74 73 75 75 74 74 73 72 72 73 69 68 70 66 68
62 63 64 63 63 64 64 65 65 65 65 65 66 66 66 65 65 64 66 65 67 67 67 68 67 67 65 63 64 65 66 66 67 66 66 66 67 66 67 68 68 69 68 68 70 70 70 69 68 70 70 70 69 70 71 71 71 72 71 72 71 72 72 72 71 71 70 69 68 70 72 72 73 74 73 72 71 72 73 72 71 69 72 69 67
61 61 60 61 64 64 64 65 64 65 65 64 65 65 65 66 65 64 66 66 67 66 66 66 65 65 64 63 63 64 66 66 67 67 67 65 66 67 67 67 65 65 66 64 66 70 70 70 69 70 70 70 70 71 70 70 70 71 71 71 71 71 71 71 73 72 71 70 69 69 70 71 69 72 74 72 70 70 72 72 72 72 72 71 69
65 64 60 60 63 63 63 63 64 63 63 64 65 65 65 64 65 65 66 67 66 65 65 66 65 62 64 63 64 65 66 66 67 66 67 68 68 67 66 66 66 64 64 65 66 67 71 70 70 70 71 71 70 69 70 71 70 69 69 69 70 70 70 71 71 71 71 70 70 69 69 71 70 71 73 73 72 71 70 71 71 73 72 73 73
63 63 63 62 63 61 63 62 63 65 65 66 66 65 64 65 65 66 66 66 65 64 65 63 63 65 64 65 66 66 66 65 66 69 68 67 67 66 66 66 65 65 65 65 65 66 68 70 71 71 71 71 71 71 71 70 70 70 70 70 70 71 71 72 71 70 69 70 70 69 69 69 71 71 72 73 71 72 72 71 70 71 71 72 73
64 61 63 63 63 62 64 62 63 64 65 66 65 65 65 65 65 65 65 65 65 65 65 64 63 64 64 65 65 65 65 63 67 67 67 66 67 67 66 66 65 65 65 64 65 65 67 67 68 71 72 72 72 72 71 71 71 71 70 70 71 71 71 71 71 70 70 69 70 70 71 71 70 71 72 70 69 68 72 72 71 71 72 72 72
64 64 64 63 64 64 64 64 64 64 64 64 65 65 65 65 64 64 65 65 65 65 65 65 64 63 63 63 64 64 63 62 66 68 67 67 67 66 65 65 65 65 65 65 65 65 65 65 67 67 69 71 72 73 72 72 71 71 71 71 71 71 71 70 70 70 70 69 69 70 70 70 69 69 70 70 71 72 72 72 70 72 71 69 70
64 62 64 64 65 65 63 63 63 64 64 63 64 64 65 64 65 64 64 64 65 65 64 65 64 63 62 62 61 62 62 64 68 68 68 67 66 66 65 65 65 64 64 64 63 63 63 64 66 66 67 71 73 72 70 72 71 71 70 71 72 71 70 70 70 71 70 70 70 70 70 69 70 70 69 69 71 71 70 71 71 70 69 68 67
63 64 63 63 63 63 62 62 63 63 63 63 63 64 64 64 64 64 64 64 64 64 64 64 64 64 63 64 63 62 62 68 65 66 66 66 66 66 65 63 63 62 62 62 62 62 63 64 65 65 66 68 70 70 70 71 71 71 71 71 71 70 71 71 70 70 70 69 69 70 70 69 69 69 69 69 71 70 71 71 70 69 68 67 67
63 62 62 61 62 61 61 61 61 62 62 62 63 63 63 63 63 63 63 63 63 64 64 63 63 64 64 64 64 63 63 64 65 64 64 64 65 66 64 63 63 63 63 63 63 64 65 65 65 65 65 68 70 69 70 69 70 69 70 72 71 71 69 68 69 71 71 70 70 70 70 70 70 70 70 69 73 71 71 71 71 71 69 68 68
61 61 60 60 60 60 61 61 61 61 62 62 62 62 62 62 61 61 62 63 62 62 62 62 62 63 63 64 64 64 63 64 62 61 61 61 63 66 65 64 63 63 64 64 63 64 65 66 66 65 65 67 68 68 68 67 69 68 68 68 69 71 71 69 69 69 70 70 70 69 71 71 71 71 72 72 71 70 68 68 70 70 70 69 71
60 59 59 60 60 60 60 60 60 61 61 61 61 61 61 61 61 61 61 61 61 62 62 61 61 61 62 62 62 62 62 60 60 59 59 59 62 65 64 63 63 63 63 63 64 64 64 65 66 65 66 67 68 67 68 67 69 68 68 69 70 71 71 70 70 70 70 69 69 70 70 71 72 72 73 73 71 71 70 68 68 69 71 71 70
58 58 58 59 59 59 59 60 60 60 60 61 60 60 61 61 61 61 61 61 60 61 61 61 61 61 62 62 61 61 60 58 58 57 57 57 61 60 61 62 63 62 62 62 63 63 64 65 66 66 67 67 68 68 68 68 67 67 69 69 69 70 70 71 70 69 70 71 71 70 70 71 70 71 72 72 74 72 71 72 71 70 69 68 67
56 57 57 57 58 58 59 59 59 59 59 59 59 59 60 60 61 61 60 60 59 60 60 60 62 61 62 62 61 61 59 57 56 56 55 56 58 57 59 59 60 60 59 59 61 62 63 64 65 66 66 67 68 64 65 69 67 67 67 67 68 67 69 70 68 66 65 64 63 64 64 65 65 65 65 66 70 71 70 69 68 69 68 67 67
55 55 56 56 58 59 59 59 58 59 59 59 58 59 59 60 61 61 60 60 60 60 61 60 61 61 60 60 61 62 60 57 55 54 54 55 57 55 56 57 57 57 57 58 59 61 62 64 64 66 65 65 63 61 62 65 65 66 66 65 66 66 66 68 69 69 65 63 63 63 63 64 64 65 65 65 66 69 70 67 67 68 68 68 68
55 55 56 56 57 58 58 59 59 58 58 58 58 58 59 59 60 60 60 60 60 60 59 59 59 59 60 60 60 61 61 58 54 54 53 53 54 54 54 54 54 54 54 55 57 59 60 62 63 66 66 64 60 59 60 63 63 63 64 65 66 66 66 68 68 69 69 69 69 70 69 68 68 68 70 68 68 69 69 69 69 69 68 68 68
56 56 57 57 57 58 57 58 58 58 58 58 58 58 59 59 59 59 60 58 57 57 58 57 58 57 58 58 58 59 60 59 55 53 52 52 53 53 52 52 52 52 53 55 56 57 58 60 62 66 61 59 58 57 57 58 60 62 63 63 63 65 68 67 68 69 69 69 69 70 70 70 71 71 71 71 71 71 69 70 70 70 69 69 68
56 56 56 57 57 57 57 58 57 57 58 57 57 58 58 58 59 59 59 58 58 57 57 57 55 56 55 56 56 56 56 56 57 53 51 51 51 52 50 50 50 51 52 54 54 55 57 58 59 62 60 58 57 55 55 56 59 61 63 63 64 66 64 64 66 69 68 68 69 69 69 70 70 71 71 71 72 72 72 70 70 70 69 69 68
56 56 56 56 56 56 57 58 56 56 56 58 57 57 58 58 57 58 58 57 56 56 55 55 55 54 55 54 54 54 54 55 54 54 52 50 50 51 49 50 51 51 52 52 53 54 56 57 59 61 59 56 55 54 53 54 57 61 63 59 59 60 63 65 66 66 66 67 67 67 68 68 68 69 69 70 71 72 72 71 71 71 70 70 69
56 56 56 56 55 56 57 56 56 54 55 57 57 57 57 57 58 58 57 55 54 54 54 53 53 53 52 53 53 53 53 53 53 52 51 50 49 49 50 50 51 52 51 51 52 54 56 58 58 60 55 52 52 52 53 54 58 60 57 56 57 58 62 63 64 65 66 66 66 66 67 67 67 67 68 68 69 71 72 72 71 71 71 72 71
55 55 55 55 55 56 56 55 56 55 57 57 57 56 57 56 57 57 56 54 53 52 52 51 51 50 50 49 50 50 51 51 52 51 50 50 49 48 49 49 50 52 52 51 53 54 55 55 56 53 51 50 51 53 54 56 58 55 54 55 56 60 62 63 63 64 65 65 65 66 67 67 67 67 68 69 69 71 71 71 72 72 71 70 69
52 52 54 55 54 55 55 55 55 56 56 56 56 56 55 56 56 56 55 53 53 52 51 50 50 49 48 48 48 48 49 50 50 50 49 49 49 48 49 49 50 51 51 52 53 53 54 52 51 52 53 53 53 54 58 61 57 57 57 58 61 63 64 64 65 65 65 65 65 65 66 67 67 68 68 69 69 70 69 70 69 68 68 71 69
52 52 53 54 53 55 53 54 56 56 56 56 56 56 55 55 55 54 53 52 52 51 50 49 49 48 47 47 47 48 48 48 48 47 48 48 48 48 48 49 50 51 52 52 53 53 53 54 54 55 57 57 61 60 60 60 59 59 59 62 62 62 63 63 64 63 63 63 64 65 64 64 65 66 68 69 68 67 68 67 68 68 69 68 67
52 52 52 50 53 53 52 53 55 56 55 54 54 54 55 54 54 54 52 51 51 51 49 49 48 47 47 47 47 47 47 46 46 46 46 46 46 47 46 47 50 50 51 51 51 52 55 55 54 53 54 55 55 57 56 57 56 56 57 59 60 59 61 61 61 61 62 62 63 64 64 65 66 67 67 68 68 68 69 68 68 67 67 67 67
47 48 46 48 51 48 48 50 52 53 55 54 51 52 54 51 52 54 52 51 51 50 50 49 48 47 47 46 47 46 45 45 45 44 45 45 46 45 45 47 47 48 49 50 50 54 53 53 52 52 52 51 51 52 52 54 55 55 55 57 58 58 58 59 59 57 59 61 62 63 64 65 64 64 65 65 66 67 69 68 68 67 68 67 65
51 47 48 49 48 50 48 48 50 50 52 52 51 56 54 53 54 54 54 54 52 51 50 49 49 48 47 47 47 45 44 43 44 46 49 45 47 44 44 45 45 48 51 49 52 51 51 50 49 49 48 49 49 48 48 48 50 50 50 51 52 52 53 54 53 54 56 58 59 61 62 62 63 64 65 65 66 66 67 67 67 67 67 67 66
49 50 48 49 47 44 47 47 49 50 49 51 51 52 56 54 56 54 55 54 52 50 48 50 49 49 48 48 47 45 44 44 46 43 41 41 42 42 42 41 42 46 50 48 53 49 48 47 46 46 46 46 46 47 46 46 47 47 48 49 50 50 51 51 50 51 53 55 56 57 59 59 59 60 61 62 63 64 66 65 66 66 66 65 65
48 46 48 48 47 46 46 47 49 52 50 49 50 49 47 57 47 50 52 53 50 45 44 44 45 48 49 45 46 48 48 45 42 41 41 41 41 40 40 40 41 42 44 51 49 47 45 45 45 45 45 45 45 46 46 45 46 46 46 47 47 48 49 48 49 51 51 51 52 53 54 55 55 56 57 58 59 60 62 65 66 66 66 65 65
49 50 49 49 51 52 50 51 49 49 49 49 50 50 48 48 53 49 48 50 48 44 42 42 42 43 45 47 48 46 45 43 41 40 40 41 40 40 40 40 41 41 43 46 47 45 44 44 44 43 44 44 44 46 45 44 45 45 45 45 45 46 46 46 47 48 49 48 49 50 51 51 52 53 54 55 56 57 59 61 63 65 65 65 65
49 49 49 49 50 50 48 51 51 50 48 48 48 49 46 44 45 44 55 46 45 43 41 41 41 40 41 41 41 39 39 40 40 40 40 40 40 40 40 41 41 41 44 46 46 43 43 43 43 43 42 43 42 42 43 43 44 44 44 44 44 44 45 46 47 47 47 47 47 48 49 50 51 51 52 53 54 55 57 58 60 63 64 64 64
47 50 49 48 48 51 50 51 51 50 51 51 49 48 46 46 44 46 44 46 53 47 41 41 41 41 41 41 40 39 39 39 40 40 40 40 40 40 39 48 41 40 42 45 44 43 41 41 42 42 42 42 42 42 42 42 43 43 43 42 43 43 44 45 43 44 45 46 45 46 47 48 49 49 50 51 52 53 54 56 56 58 60 61 62
49 51 50 48 48 49 49 49 48 50 51 49 49 45 46 47 46 44 44 44 45 45 43 49 46 41 46 45 39 38 38 39 39 39 40 40 40 39 41 47 44 42 43 43 42 41 41 41 40 41 41 41 41 41 41 40 41 42 42 42 42 42 42 41 41 43 43 43 44 45 46 47 46 48 48 49 50 51 52 53 54 56 57 58 59
48 49 47 45 48 49 48 49 52 48 50 49 47 45 45 44 43 43 43 43 44 43 44 45 50 48 44 41 40 39 38 39 39 39 39 40 40 39 45 42 40 40 41 41 41 41 41 40 40 40 40 40 40 39 39 39 40 40 41 41 42 41 41 41 42 42 43 41 42 44 44 45 45 46 46 48 49 50 51 52 52 54 55 56 57
50 48 47 49 49 49 50 50 52 48 46 46 46 46 45 45 44 42 43 43 44 43 43 46 46 48 47 46 46 40 39 39 40 39 39 40 40 42 41 40 40 40 39 40 40 40 39 39 40 40 39 39 39 39 39 39 40 40 41 41 41 41 41 41 41 43 41 40 40 42 43 43 44 45 46 46 47 48 49 50 52 52 54 55 56
51 49 47 49 49 53 52 51 45 47 49 45 49 50 44 45 45 44 43 44 43 43 42 43 43 44 43 44 44 43 43 43 40 40 39 39 43 42 42 41 41 40 40 40 40 40 40 40 40 39 39 38 39 39 39 39 39 38 39 39 40 40 43 41 43 41 42 40 40 40 42 42 43 44 46 46 46 47 48 49 50 50 52 54 54
53 50 48 49 50 47 42 45 46 44 45 44 42 45 43 43 43 43 43 43 43 42 43 42 41 41 43 43 43 42 43 42 41 40 41 43 42 41 40 40 40 40 40 41 40 40 40 39 40 40 41 40 40 40 39 38 39 39 40 39 38 39 38 38 39 40 40 39 39 39 40 42 42 44 44 45 46 47 47 47 48 49 50 51 52
45 45 47 47 44 44 45 46 45 45 47 43 41 44 42 43 43 43 41 42 43 43 41 42 41 43 45 45 42 41 41 40 40 40 40 40 41 42 41 39 40 40 40 41 40 40 39 39 41 40 42 42 41 40 40 40 39 39 39 38 38 38 38 38 38 38 38 39 39 39 40 41 42 44 44 44 46 47 47 47 48 48 48 49 50
45 42 43 50 49 45 45 43 46 46 44 44 42 41 41 44 44 44 41 41 41 42 42 42 43 45 44 43 42 42 45 41 41 41 40 41 41 41 40 39 39 39 40 40 41 41 40 40 40 40 40 40 40 40 40 40 40 38 38 38 37 38 37 38 39 39 39 39 39 39 40 41 42 42 43 44 48 47 47 47 48 48 48 48 49
43 42 42 43 48 44 42 43 42 47 47 46 44 44 44 43 41 44 42 42 42 41 40 41 42 44 45 43 40 39 43 41 41 41 41 40 40 41 41 40 40 42 40 39 40 41 41 41 39 39 40 40 40 40 39 38 38 37 37 37 37 37 39 39 40 40 39 39 39 39 40 41 42 43 43 46 44 45 46 47 48 48 48 48 48
47 45 47 46 44 44 42 43 47 45 45 45 44 45 44 43 42 42 40 42 39 40 40 40 41 44 44 43 44 43 42 40 42 41 40 40 40 41 39 39 38 39 41 41 41 41 41 40 40 39 40 40 40 40 38 38 39 38 37 38 38 41 41 40 39 38 38 38 39 40 40 40 41 42 42 43 43 45 46 48 48 48 48 48 49
43 43 45 45 46 46 49 46 44 45 44 45 46 45 44 44 42 42 40 40 40 39 38 38 38 41 42 41 42 41 40 39 40 39 42 41 40 39 38 38 39 40 39 40 40 41 41 39 40 40 41 40 40 42 40 39 40 39 40 41 42 42 40 39 38 36 37 37 38 39 39 40 41 42 43 45 45 46 47 48 48 48 48 47 47
43 40 41 42 43 45 44 49 45 46 48 46 45 45 46 44 43 42 42 40 40 40 38 38 38 39 39 41 41 40 40 39 41 40 40 39 39 38 37 38 40 40 39 39 40 41 40 39 40 40 41 40 41 41 40 40 41 40 40 41 41 40 39 38 37 37 36 37 37 37 38 39 39 40 41 43 45 46 46 46 47 48 46 46 46
42 43 42 42 43 45 45 45 47 46 45 45 44 43 43 44 44 44 44 43 42 39 38 38 39 39 39 39 38 40 39 40 39 38 39 39 39 39 39 38 39 40 39 39 40 41 40 41 40 39 40 41 41 40 40 41 41 42 42 41 40 39 38 37 37 36 36 36 36 36 36 37 38 39 43 42 42 44 45 46 46 46 44 44 45
46 43 41 42 42 45 47 49 48 47 47 45 46 45 45 44 44 46 46 45 44 43 39 39 39 38 39 40 39 40 40 40 41 40 39 39 40 39 39 40 39 38 38 39 41 39 40 40 40 40 41 41 41 42 41 40 41 42 42 41 40 39 38 37 36 36 35 36 36 35 35 37 38 39 40 41 42 43 45 46 44 42 42 43 44
45 42 43 45 45 44 46 47 46 46 46 46 45 46 46 45 44 45 46 45 44 43 41 40 40 40 41 40 40 41 41 41 41 40 39 38 38 38 40 40 40 38 38 39 40 39 40 40 40 41 41 42 42 41 42 41 42 42 41 41 39 38 37 37 36 35 35 34 35 35 36 36 36 38 39 41 43 44 43 40 40 39 41 42 43
42 40 40 42 43 43 45 44 46 45 45 45 45 46 45 44 44 44 44 45 44 44 42 41 41 41 41 42 41 41 41 42 40 39 38 38 38 38 39 40 41 39 39 39 39 40 41 40 41 41 41 41 41 41 41 43 42 41 41 39 38 38 37 36 35 35 34 34 34 34 35 35 36 38 40 43 44 42 41 41 39 40 40 42 43
44 44 41 42 43 44 48 46 45 44 46 45 45 44 44 45 44 45 45 45 46 47 46 43 42 42 41 41 41 41 41 41 39 38 38 38 37 38 37 39 40 39 39 40 39 40 40 41 42 41 41 41 41 41 43 42 41 40 39 38 37 37 36 35 35 35 34 34 34 34 35 36 37 39 41 42 41 41 41 41 41 41 41 41 42
47 45 45 42 43 44 45 45 45 45 47 46 44 43 45 44 44 45 45 45 44 44 44 43 42 41 41 40 41 42 42 41 39 38 37 37 37 37 37 38 39 41 41 41 40 40 41 41 40 40 41 41 41 43 43 41 40 40 39 37 37 35 34 34 34 34 34 34 34 35 36 38 40 41 41 40 40 40 41 42 41 41 41 40 41